Ames Municipal Airport
Saturday 9:53 PM
Temperature37° (49°/23°)
Dew Point28°
Relative Humidity70
%
Visibility10
mi
Pressure1020.7
mb
Wind Direction
Wind SpeedCalm
Precipitation Today0.00"

Last 30 Observations

Time PresWx Temp DP Feels RH% Vsby Pressure Ceiling Direction Speed 1h Precip
9:53 PM 37° 28° 70
%
10
mi
1020.7
mb
Calm 0.00"
8:53 PM 40° 28° 38°62
%
10
mi
1020.7
mb
ENE
60°
3
mph
0.00"
7:53 PM 43° 26° 51
%
10
mi
1020.3
mb
Calm 0.00"
6:53 PM 47° 27° 44°46
%
10
mi
1020.7
mb
ENE
70°
6
mph
0.00"
5:53 PM 48° 26° 46°42
%
10
mi
1020.3
mb
E
80°
5
mph
0.00"
4:53 PM 48° 27° 45°44
%
10
mi
1020.7
mb
ENE
70°
7
mph
0.00"
3:53 PM 48° 29° 44°47
%
10
mi
1021.3
mb
NE
40°
9
mph
0.00"
2:53 PM 45° 29° 41°53
%
10
mi
1022.4
mb
NE
50°
8
mph
0.00"
1:53 PM 42° 30° 38°62
%
10
mi
1023.4
mb
ENE
70°
6
mph
0.00"
12:53 PM 37° 29° 33°72
%
10
mi
1024.1
mb
Variable 5
mph
0.00"
11:53 AM 36° 29° 30°75
%
10
mi
1024.4
mb
ENE
60°
8
mph
0.00"
10:53 AM 31° 26° 23°82
%
10
mi
1025.1
mb
N
350°
8
mph
0.00"
10:17 AM 29° 24° 19°82
%
10
mi
1025.1
mb
N
350°
11
mph
0.00"
9:53 AM 28° 24° 19°85
%
10
mi
1025.1
mb
1,100
ft
NNW
330°
10
mph
0.00"
8:53 AM 26° 22° 18°84
%
10
mi
1025.4
mb
1,000
ft
NNW
330°
7
mph
0.00"
8:19 AM 25° 22° 16°88
%
10
mi
1025.1
mb
1,000
ft
N
350°
9
mph
0.00"
8:06 AM 25° 22° 16°88
%
10
mi
1025.1
mb
900
ft
N
360°
9
mph
0.00"
7:53 AM 24° 21° 15°88
%
10
mi
1024.7
mb
1,000
ft
N
10°
8
mph
0.00"
7:34 AM 24° 21° 12°88
%
10
mi
1024.7
mb
1,100
ft
N
360°
13
mph
0.00"
6:53 AM 24° 20° 13°84
%
10
mi
1024.7
mb
N
350°
11
mph
0.00"
6:41 AM 24° 20° 14°84
%
10
mi
1024.7
mb
N
350°
10
mph
0.00"
5:53 AM 26° 23° 17°88
%
10
mi
1024.4
mb
1,100
ft
N
350°
9
mph
0.00"
4:53 AM 26° 23° 16°88
%
10
mi
1024.4
mb
1,100
ft
N
350°
10
mph
0.00"
3:53 AM 27° 23° 17°85
%
10
mi
1024.7
mb
1,200
ft
NNW
340°
11
mph
0.00"
2:53 AM 27° 23° 16°85
%
10
mi
1024.4
mb
1,400
ft
N
350°
14
mph
0.00"
1:53 AM 27° 23° 16°85
%
10
mi
1024.4
mb
1,300
ft
NNW
330°
14
mph
0.00"
12:53 AM 27° 23° 15°85
%
10
mi
1024.1
mb
1,400
ft
NNW
340°
15
mph
0.00"
11:53 PM 28° 24° 17°85
%
10
mi
1024.1
mb
1,400
ft
N
350°
14
mph
0.00"
11:11 PM 29° 25° 16°85
%
10
mi
1024.1
mb
NNW
330°
18
mph
0.00"
10:53 PM 29° 25° 18°85
%
10
mi
1023.7
mb
NNW
340°
15
mph
0.00"